Lapse_Rate
2.0 1.5 1.5 1.1 0.8 0.6 0.6 0.5 1.0 0.9 0.9 1.2 1.9 2.1 2.0 1.9 1.7 1.8 2.2 1.9 2.1 2.0 2.3 2.5 2.6 2.6 2.6 2.6 3.3 4.1 4.5 4.5 5.1 4.1 3.5 3.9 3.3 3.0 3.0 3.0 2.7 1.9 1.7
-0.5 -0.5 -0.3 0.0 0.4 0.9 1.2 0.7 0.4 0.6 1.0 1.3 2.1 2.6 2.8 2.6 2.3 2.2 2.3 2.0 1.8 1.7 1.8 2.0 2.2 3.4 2.6 2.6 2.9 3.6 3.7 4.1 4.7 4.6 3.5 3.7 3.3 3.5 2.5 2.4 3.3 4.1 3.3
-1.5 -1.2 -0.6 -0.3 0.2 0.7 1.1 1.0 0.6 1.1 1.8 2.1 2.6 2.9 2.6 2.9 2.8 2.4 1.9 1.6 1.3 1.2 1.3 1.7 2.2 2.4 2.4 2.1 2.5 2.9 3.4 4.0 4.1 4.3 4.1 3.6 3.6 3.7 3.7 3.1 3.1 2.9 3.4
-1.1 -0.4 -0.4 -0.2 -0.0 0.1 0.5 0.9 1.2 1.6 2.4 2.8 3.0 3.4 3.6 3.4 3.0 2.4 1.7 0.9 1.0 1.6 1.9 2.4 2.8 3.0 3.2 3.1 3.4 3.7 4.0 3.9 4.1 4.5 4.1 3.7 3.5 3.4 3.3 3.7 3.3 3.1 3.1
-1.0 -0.0 0.0 -0.3 -0.5 -0.0 0.4 0.9 1.1 1.8 2.6 3.4 3.8 4.0 4.5 4.7 4.1 2.9 2.0 1.3 1.4 2.1 2.6 2.9 3.5 4.4 4.7 4.4 4.2 3.8 3.7 3.9 3.9 4.1 4.1 3.9 3.6 3.5 3.9 4.2 4.1 3.5 2.8
-0.7 -0.2 -0.2 -0.5 -0.2 0.4 0.9 1.1 1.4 2.2 3.2 4.3 4.6 5.0 6.4 6.2 5.0 5.2 4.2 1.9 2.0 1.8 2.1 2.7 3.7 3.4 2.9 3.5 3.8 4.2 4.4 3.8 3.6 3.5 3.7 4.1 3.7 3.7 3.9 4.0 3.9 3.9 3.9
-0.8 -0.4 -0.2 -0.5 0.3 0.7 1.3 1.6 2.0 2.7 3.7 4.8 5.3 5.5 6.0 4.7 4.8 4.6 5.1 1.8 1.6 1.5 2.2 3.5 3.6 4.0 2.0 1.9 2.5 3.4 3.3 4.0 4.1 3.1 3.4 3.9 3.7 4.0 3.4 3.1 3.9 4.1 4.1
-1.0 -0.7 -0.4 -0.4 -0.1 0.3 1.1 1.8 2.2 2.7 3.7 4.1 4.2 4.1 4.3 4.2 4.3 4.1 4.3 1.9 1.6 1.6 2.1 3.5 2.9 2.4 2.4 2.2 2.3 2.8 2.7 2.7 2.7 2.6 2.6 3.1 2.9 2.1 2.6 3.5 3.7 3.4 2.9
-0.7 -0.6 -0.3 0.1 0.3 0.6 1.3 2.1 2.3 3.0 2.9 3.2 3.7 3.8 4.0 4.0 4.3 3.7 3.0 1.8 1.5 1.3 1.9 2.7 2.7 1.7 1.9 1.9 2.4 2.4 2.7 3.1 4.5 3.9 3.7 3.7 3.3 2.6 2.3 2.1 2.9 3.2 3.6
0.5 0.5 0.5 0.6 0.8 0.8 1.5 2.4 2.9 2.7 3.3 3.0 3.2 3.0 3.6 3.6 3.9 3.6 2.6 1.2 0.7 0.2 1.5 2.2 3.3 2.7 2.3 2.2 3.1 2.2 2.4 2.7 2.7 3.3 3.0 2.9 2.6 2.3 3.1 2.8 2.9 3.2 2.9
0.8 0.8 0.8 0.8 0.7 1.1 2.1 2.5 3.1 3.0 3.0 2.7 1.9 1.6 2.2 2.1 2.4 3.0 2.6 0.9 0.3 0.3 1.7 2.2 2.7 4.0 2.7 2.7 3.5 3.0 2.7 2.2 3.2 2.7 2.4 2.2 1.8 1.6 1.3 1.9 2.9 3.9 3.9
1.3 1.4 1.4 1.1 1.3 1.8 1.9 2.2 2.7 2.9 3.0 2.7 1.7 1.1 0.8 1.2 2.2 2.2 2.1 1.7 1.7 0.8 2.0 1.8 4.2 3.3 2.6 2.7 3.8 3.0 2.7 2.8 2.4 1.9 1.7 1.4 1.4 1.4 1.3 1.5 1.6 2.8 3.2
1.1 1.5 1.6 1.6 1.6 1.7 2.1 2.5 2.6 3.0 2.9 2.6 1.5 1.0 1.2 0.2 -0.2 1.0 1.0 0.9 1.1 1.1 0.9 2.2 3.3 3.6 3.6 3.6 3.7 3.8 3.1 2.0 2.2 2.2 1.9 2.0 2.0 2.0 2.7 2.5 3.2 3.3 3.8
1.6 1.8 1.3 1.6 2.0 2.1 1.9 2.0 2.0 2.1 2.0 1.5 1.4 0.6 0.0 -0.3 -0.4 -0.9 -1.4 -1.9 0.2 0.7 1.5 0.6 2.5 4.0 4.4 3.7 2.8 3.0 2.5 2.2 2.4 2.5 2.7 2.3 2.0 2.1 1.7 1.0 1.5 1.5 1.8
1.6 1.3 1.2 1.4 1.8 2.0 1.8 1.9 2.1 1.6 1.6 1.4 1.3 1.2 1.0 1.0 0.4 -0.7 -1.0 -0.4 -0.4 0.0 0.1 1.5 2.0 2.0 2.5 2.2 2.3 2.4 1.8 1.6 2.0 1.7 2.0 2.1 1.7 2.0 1.8 0.8 0.6 0.3 0.7
1.3 1.1 1.1 1.6 1.6 1.3 1.3 1.1 -0.1 -0.0 -0.3 -1.0 -0.4 0.7 0.7 0.4 0.3 -1.2 -1.5 -1.8 -1.5 -0.9 0.6 1.6 2.2 2.1 2.3 2.6 2.7 2.8 2.4 3.1 2.3 2.5 2.4 2.5 2.7 2.7 2.6 1.7 1.2 1.1 1.4
1.4 1.5 1.1 1.6 1.9 1.9 1.8 1.7 1.9 1.6 -0.9 -0.8 -2.4 -2.0 -1.3 1.2 -1.0 -1.9 -2.0 -1.9 -1.9 -1.1 0.3 0.9 1.5 1.7 2.2 2.0 2.1 2.4 3.0 2.7 2.6 2.6 2.8 3.0 3.1 3.1 2.9 2.6 2.0 1.6 1.8
1.1 1.5 1.1 1.2 1.4 1.4 1.4 1.6 1.3 1.5 2.3 2.2 -0.0 -1.4 -2.2 -2.6 -2.2 -2.2 -2.3 -1.4 -0.2 -0.7 -0.0 0.9 1.5 1.4 1.6 1.8 2.1 2.3 2.6 2.3 2.6 2.8 2.8 2.9 2.5 2.6 2.9 2.9 2.6 2.3 2.0
1.2 1.5 1.5 1.4 1.1 1.4 1.6 1.5 1.2 1.5 1.8 1.4 0.8 -0.5 -2.3 -3.1 -3.2 -3.0 -3.0 -1.3 -0.1 0.4 0.6 0.7 0.7 1.0 1.3 1.6 1.7 1.9 2.2 2.6 2.6 2.6 2.6 2.3 2.0 1.7 2.2 2.2 2.0 2.9 2.8
0.8 1.7 2.0 1.2 1.3 1.4 1.4 1.6 1.7 1.8 1.8 1.7 1.6 1.5 -0.1 -1.2 -0.5 -0.1 -1.8 -1.7 -1.5 -0.7 -0.2 0.3 0.6 0.6 1.2 1.5 1.5 1.6 2.0 2.1 2.4 2.3 2.0 1.3 1.2 1.2 1.6 2.0 2.1 2.3 2.2
1.2 0.9 2.0 1.0 0.8 1.1 1.4 1.6 1.6 1.3 1.5 1.7 1.9 1.6 -0.3 0.5 1.5 0.8 0.3 -0.8 0.0 -0.1 -0.1 -0.1 0.3 0.5 0.9 1.3 1.2 1.4 1.6 1.8 1.8 1.7 1.4 1.3 1.3 1.3 1.3 1.5 1.8 1.8 1.8
2.4 1.6 1.1 2.0 2.1 1.9 2.0 1.9 1.9 1.7 1.8 1.7 2.7 1.9 -1.8 -0.4 0.4 1.1 0.0 -0.2 0.2 0.3 0.3 0.6 0.7 0.8 1.3 1.7 1.8 1.5 1.5 1.7 1.7 1.4 1.6 1.4 1.1 1.0 1.0 1.2 1.3 1.5 1.5
1.6 1.9 1.8 1.6 2.0 2.4 2.1 1.7 1.7 1.6 1.8 2.2 2.5 3.4 0.9 0.0 0.7 1.7 1.6 1.8 0.6 0.3 0.5 -0.0 0.8 1.2 1.1 1.1 1.9 1.9 2.0 2.1 2.3 1.7 1.7 1.1 1.1 0.8 0.8 0.9 1.1 1.1 0.9
1.2 1.5 1.9 2.4 2.4 2.0 2.3 2.6 2.2 1.6 2.3 3.4 3.7 3.5 3.1 1.9 2.1 2.5 2.7 1.7 1.7 2.1 1.1 0.5 1.1 1.9 2.1 1.5 2.2 2.2 2.1 2.7 2.2 1.7 1.1 0.9 1.0 0.6 0.6 0.6 0.4 0.5 0.6
1.6 1.7 1.4 1.8 2.3 2.2 1.4 1.6 2.4 2.7 3.3 3.9 4.0 3.7 4.4 3.0 3.1 2.7 2.5 2.6 3.1 2.8 2.1 1.4 1.6 1.8 1.8 2.4 2.4 2.3 2.7 2.7 1.9 2.2 0.4 0.6 0.6 0.9 0.6 0.0 -0.1 -0.0 0.4
2.7 2.5 2.5 1.9 1.6 1.7 1.7 1.8 2.4 2.4 2.7 3.2 3.3 2.2 2.7 3.0 2.9 3.3 3.5 2.8 3.7 3.8 3.2 2.4 2.4 1.6 2.1 2.5 3.2 3.3 2.7 1.3 -0.1 -0.2 0.3 -0.5 0.0 0.0 -0.3 -0.5 -0.4 -0.2 0.8
Wind_Speed
6 6 7 6 6 5 4 3 3 2 2 3 2 3 4 5 5 5 5 5 5 5 4 5 5 4 4 4 4 3 2 2 4 3 2 2 3 5 6 7 11 9 11
6 6 6 6 5 5 4 3 3 4 4 4 4 3 5 5 5 5 5 5 5 5 5 5 5 4 5 4 3 4 3 4 3 6 2 2 4 4 5 5 5 8 7
7 7 6 5 5 4 3 3 3 3 4 5 4 5 4 4 4 4 4 5 5 5 5 5 5 5 5 3 3 4 3 3 4 4 4 2 3 2 3 3 4 4 7
7 6 6 5 4 3 1 2 2 2 2 3 3 3 3 1 2 4 5 5 5 4 5 5 5 5 5 5 4 5 4 4 3 3 3 3 3 2 2 2 3 2 4
8 6 5 5 4 3 1 2 2 1 1 1 0 0 1 0 3 5 5 5 5 5 5 5 4 9 10 6 3 4 4 3 3 3 3 2 3 3 2 1 2 3 3
7 7 5 5 4 3 1 1 3 4 4 4 4 4 4 2 5 8 7 5 5 5 5 5 4 8 9 11 11 9 4 2 3 2 2 3 5 3 2 2 2 2 3
7 6 6 6 4 4 2 2 3 4 4 4 5 5 3 2 3 7 9 4 5 5 5 4 5 6 8 7 10 10 8 7 2 3 3 2 4 2 4 3 2 2 3
7 7 6 6 6 4 2 3 4 2 3 3 5 5 2 2 3 7 8 5 5 5 5 5 5 6 6 6 5 6 6 5 5 3 2 3 3 6 5 2 2 3 3
7 7 6 5 5 3 2 3 3 2 3 2 3 5 4 5 1 5 4 4 5 5 5 5 4 5 10 7 5 6 6 6 7 10 6 6 8 10 8 1 2 1 2
6 6 6 5 5 4 3 3 2 1 3 4 5 5 7 4 3 5 4 3 5 4 5 5 7 7 8 6 4 4 5 4 5 5 5 5 8 7 11 5 3 2 2
6 6 6 6 6 5 3 2 2 2 3 4 5 4 2 3 2 4 6 2 3 4 3 4 4 9 7 7 5 3 3 4 4 4 4 4 5 5 5 5 5 3 2
5 5 6 6 4 4 4 2 2 2 3 3 2 3 2 1 2 4 5 4 4 2 3 3 5 10 9 7 5 7 8 5 4 4 4 4 4 5 5 5 6 6 8
6 7 6 5 4 4 4 3 2 2 2 3 2 3 4 4 4 5 5 5 4 2 3 6 9 7 7 5 6 6 6 4 3 4 4 3 3 4 4 4 6 8 7
6 6 5 4 5 5 4 3 3 4 4 4 4 4 4 4 4 4 3 2 3 3 5 4 5 3 4 4 4 5 3 3 3 2 2 2 3 4 4 4 4 5 4
6 4 4 4 4 5 5 4 5 5 5 4 5 4 4 4 4 6 5 3 2 3 5 2 3 3 3 3 2 3 3 4 3 1 2 2 3 3 3 3 3 3 3
4 3 4 3 3 4 3 4 8 10 7 10 9 7 4 7 6 8 7 6 6 5 1 1 1 2 2 1 1 2 2 2 1 0 0 0 1 1 2 3 2 2 2
5 4 4 4 3 2 2 2 4 3 6 7 10 11 11 9 10 9 7 3 6 3 2 3 3 3 3 3 3 2 2 2 1 2 1 2 2 2 1 1 1 1 2
5 7 5 5 4 4 4 4 4 3 3 4 6 10 12 12 10 7 5 1 2 4 3 3 4 5 4 4 3 3 2 2 2 2 2 3 3 3 2 3 2 2 3
5 5 5 4 4 5 3 3 3 4 4 4 3 4 7 11 8 7 8 4 4 4 4 4 5 5 5 4 4 4 4 3 3 3 3 3 4 3 4 4 4 5 5
6 11 7 5 4 4 4 4 4 5 5 5 4 6 2 3 3 5 7 5 5 6 5 6 5 5 5 5 5 5 4 4 4 4 5 4 5 4 5 5 4 4 4
6 6 10 5 5 5 5 5 5 4 5 5 6 6 9 5 7 6 6 6 7 7 7 6 6 5 5 5 5 5 5 5 5 5 5 5 4 4 5 4 4 4 5
6 6 5 6 5 5 5 5 5 5 5 5 7 6 9 6 5 7 6 7 8 8 7 6 6 6 6 6 7 6 5 6 5 5 6 6 5 5 4 4 5 4 4
6 6 5 6 6 7 5 5 5 5 5 6 7 7 5 5 6 8 9 8 7 8 7 7 7 7 6 6 9 7 6 7 8 6 7 5 5 5 5 4 4 4 4
5 6 7 7 6 6 6 7 5 8 7 7 7 7 7 6 7 9 9 7 7 8 7 7 8 11 9 7 11 13 14 14 13 8 8 5 5 5 4 3 4 5 5
4 5 5 5 6 6 5 5 6 6 7 7 7 6 8 6 6 7 7 7 7 7 10 9 9 12 15 15 11 15 20 25 19 15 8 6 7 7 4 3 4 4 5
7 7 6 5 4 4 4 5 5 5 6 6 7 6 6 7 7 7 7 7 8 8 9 8 11 16 15 15 19 22 23 23 18 18 11 5 5 4 3 5 7 4 6
Wind_Direction
106 99 98 98 94 93 102 86 54 35 2 2 354 7 21 37 41 46 26 27 22 3 357 355 334 330 327 333 327 327 298 251 275 297 250 273 276 275 281 270 274 267 274
113 100 101 104 104 93 69 59 43 17 346 340 355 31 83 69 53 43 24 10 10 355 342 342 324 328 321 310 307 311 291 281 260 279 274 278 243 274 266 287 269 269 259
113 111 110 112 111 104 87 35 29 26 15 26 30 92 81 59 42 24 16 357 348 340 327 317 306 314 313 310 307 296 289 288 267 259 284 269 262 265 303 280 288 269 254
119 121 126 139 132 120 84 33 19 4 33 46 52 107 138 77 19 22 6 3 350 333 315 301 299 301 291 300 295 292 289 302 289 275 284 284 264 280 257 287 313 314 309
124 129 151 146 135 123 78 343 318 297 289 295 164 188 174 332 25 9 6 3 356 350 346 348 20 37 36 27 351 322 306 296 300 294 280 283 287 320 300 299 278 297 284
132 145 154 147 148 162 191 294 322 312 283 294 287 264 244 95 19 15 21 8 3 6 356 353 3 25 8 3 352 341 320 287 277 264 277 292 287 280 289 258 274 319 317
136 145 158 153 164 191 240 277 293 308 325 335 335 310 96 95 36 10 15 15 11 359 355 350 12 5 4 352 347 350 348 357 347 277 277 271 290 281 303 295 252 235 246
144 157 165 163 171 187 239 288 303 280 312 319 331 359 3 304 2 5 9 5 4 356 356 350 1 344 354 1 342 350 348 338 348 309 290 317 315 311 259 247 283 289 296
151 164 173 173 182 183 219 270 282 289 313 302 304 309 282 276 258 8 22 357 348 346 342 357 9 348 349 11 24 3 353 3 0 34 48 14 350 355 5 9 339 341 305
160 178 172 173 187 197 213 233 252 282 293 303 301 262 255 246 157 40 30 354 340 344 335 352 360 4 4 357 28 13 7 344 348 2 8 3 9 4 12 24 9 24 353
156 160 170 187 184 196 209 207 229 285 306 329 351 357 13 141 145 43 13 346 302 318 323 328 324 347 343 349 15 25 322 305 4 27 19 10 8 10 8 5 6 24 46
155 169 192 200 198 173 184 258 262 251 284 313 360 347 351 347 59 1 358 330 302 271 291 304 299 328 340 353 15 19 21 31 38 33 29 15 10 3 351 2 18 45 52
157 192 206 208 215 190 194 215 254 253 269 254 253 264 266 254 266 294 309 323 316 299 288 295 305 315 336 354 15 34 40 39 41 50 36 14 349 327 347 12 21 29 45
178 206 199 218 239 229 219 202 214 241 239 233 240 240 246 267 268 261 275 296 308 313 328 327 334 338 45 29 36 34 45 53 71 84 60 346 334 12 27 6 20 358 29
188 206 214 214 230 250 242 221 218 224 192 201 227 225 209 253 246 210 202 229 250 288 328 348 7 7 3 15 2 11 17 31 51 42 49 38 26 21 11 2 25 16 40
188 212 230 227 261 246 254 283 236 234 227 223 226 202 232 230 208 209 228 254 280 290 280 258 285 273 271 252 274 310 328 346 7 27 336 103 86 39 9 354 27 33 346
201 220 231 227 219 224 235 244 281 269 236 237 225 228 224 221 217 218 210 273 298 152 220 221 228 234 226 229 220 221 244 253 256 245 231 243 249 270 348 316 305 283 294
210 231 221 228 225 219 223 236 234 225 248 285 241 225 235 239 238 215 185 220 263 237 235 229 231 220 219 217 220 222 235 259 254 246 237 235 243 247 262 267 278 265 273
220 233 230 235 236 238 243 242 229 223 234 249 288 265 239 233 221 207 196 216 221 239 237 243 234 232 225 219 225 233 233 243 242 274 256 247 246 229 258 256 264 263 267
232 236 229 228 237 237 239 240 248 241 249 246 248 253 199 142 215 221 216 206 218 237 239 235 237 228 227 227 226 228 242 249 250 246 250 243 245 226 243 252 263 272 275
226 233 228 230 234 238 235 239 239 235 238 244 251 246 204 199 238 230 226 212 221 230 235 227 234 225 218 225 226 225 228 244 235 239 246 252 247 243 237 243 259 261 266
234 231 217 236 246 245 239 236 235 229 237 242 261 264 202 216 225 241 234 224 222 223 222 220 227 223 217 215 220 218 223 234 239 231 240 243 241 245 238 248 263 264 272
226 240 239 239 235 241 250 250 247 246 247 247 250 260 226 220 229 238 239 237 222 221 221 210 224 231 222 219 220 220 217 231 235 221 232 232 238 243 229 240 250 268 267
243 236 239 252 245 239 240 249 243 246 248 251 257 250 249 237 234 233 241 240 232 231 219 213 215 226 228 219 222 223 227 235 234 233 217 216 236 231 231 237 247 258 266
334 292 265 248 258 264 256 256 259 260 256 256 254 249 254 242 234 233 234 234 229 228 227 219 220 223 226 225 223 224 231 235 231 235 211 212 219 222 227 236 260 267 261
9 13 360 359 328 301 283 280 277 271 269 272 270 259 257 257 253 253 247 236 242 239 233 227 225 217 221 224 231 236 239 242 241 243 210 188 200 221 219 247 263 260 266